[[{"header":{"parameterUnit":"m.s-1","parameterCategory":1,"la1":30.2991,"la2":30.254,"lo1":-89.0895,"lo2":-89.0444,"dy":0.0017,"dx":0.0017,"nx":28,"ny":28,"refTime":"2024-12-15T03:00:00:Z","depth":0,"parameterNumber":2,"parameterNumberName":"U-component_of_WINDS"},"data":[0,0,0,0,0,0,0,0,0,0,0,0,0,0,0,0,0,0,0,0,0,0,0,0,0,0,0,0,0,0,0,0,0,0,0,0,0,0,0,0,0,0,0,0,0,0,0,0,0,0,0,0,0,0,0,0,0,0,-5.276,-5.276,0,-5.2792,-5.2793,-5.2793,-5.2735,-5.2733,-5.2731,-5.2729,-5.2761,-5.2763,-5.2766,0,0,0,0,0,0,0,0,0,0,0,0,0,-5.2647,-5.2649,-5.276,-5.276,-5.2761,-5.2792,-5.2793,-5.2793,-5.2735,-5.2733,-5.273,-5.2728,-5.276,-5.2763,-5.2766,0,0,0,0,0,0,0,0,0,0,0,0,0,-5.2689,-5.265,-5.276,-5.2735,-5.2734,-5.2792,-5.2793,-5.2793,-5.2736,-5.2733,-5.273,-5.2727,-5.2759,-5.2762,-5.2766,-5.285,0,0,-5.2779,-5.278,0,0,0,0,0,0,0,0,-5.2687,-5.2693,-5.2739,-5.2737,-5.2735,-5.2757,-5.2764,-5.2812,-5.2736,-5.2735,-5.2729,-5.2726,-5.2761,-5.2765,-5.2777,-5.2851,-5.2852,-5.2779,-5.2781,-5.2783,-5.2784,0,0,0,0,0,0,0,-5.2684,-5.2692,-5.2772,-5.2739,-5.2737,-5.2723,-5.2726,-5.2773,-5.2764,-5.2735,-5.2731,-5.2735,-5.276,-5.2774,-5.2778,-5.2853,-5.2779,-5.2782,-5.2785,-5.2786,-5.2997,-5.3,0,0,0,0,0,0,-5.2684,-5.269,-5.2771,-5.2773,-5.2703,-5.2727,-5.273,-5.2753,-5.2763,-5.2762,-5.2738,-5.2733,-5.2768,-5.2773,-5.2779,-5.2877,-5.2783,-5.2787,-5.2789,-5.2994,-5.2998,-5.3002,0,0,0,0,0,0,-5.2682,-5.2692,-5.277,-5.273,-5.2739,-5.2732,-5.2758,-5.2755,-5.2768,-5.2766,-5.2764,-5.2754,-5.2766,-5.2773,-5.2833,-5.2877,-5.2789,-5.2792,-5.299,-5.2995,-5.3,-5.3073,0,0,0,0,0,0,-5.2679,-5.2692,-5.2723,-5.2732,-5.2742,-5.2824,-5.2761,-5.2758,-5.2776,-5.2769,-5.278,-5.2779,-5.2765,-5.2827,-5.2837,-5.2881,-5.2795,-5.2986,-5.2993,-5.2998,-5.3067,-5.308,-5.3091,0,0,0,0,0,-5.2675,-5.2742,-5.2725,-5.2735,-5.2781,-5.2826,-5.2832,-5.2815,-5.278,-5.2811,-5.281,-5.2779,-5.2871,-5.2834,-5.2844,-5.289,-5.2983,-5.2991,-5.2998,-5.3061,-5.3078,-5.3091,0,0,0,0,0,0,-5.2737,-5.2742,-5.2723,-5.2795,-5.2811,-5.2817,-5.2855,-5.2832,-5.2858,-5.285,-5.2827,-5.283,-5.2895,-5.2899,-5.2857,-5.2972,-5.2921,-5.2931,-5.2966,-5.2981,-5.2994,-5.299,-5.2799,0,0,0,0,0,-5.2759,-5.2796,-5.2799,-5.2861,-5.2871,-5.2862,-5.2881,-5.2867,-5.2882,-5.2888,-5.2891,-5.2907,-5.2939,-5.2961,-5.2991,-5.3068,-5.307,-5.3105,-5.3118,-5.3128,-5.3135,-5.3177,-5.3193,-5.3025,-5.3025,-5.3025,0,0,-5.2804,-5.2812,-5.2836,-5.2874,-5.2884,-5.2923,-5.2868,-5.2911,-5.2939,-5.2894,-5.2951,-5.2954,-5.297,-5.3039,-5.307,-5.3044,-5.3183,-5.3137,-5.3145,-5.3147,-5.3186,-5.3202,-5.3216,-5.303,-5.3029,-5.3029,0,0,-5.2906,-5.2916,-5.297,-5.2982,-5.3,-5.2994,-5.3008,-5.3018,-5.3018,-5.3075,-5.3043,-5.3077,-5.3133,-5.3146,-5.316,-5.3271,-5.3244,-5.3282,-5.3345,-5.3386,-5.3399,-5.3411,-5.3449,-5.3464,-5.329,-5.329,-5.3291,0,-5.296,-5.3017,-5.3,-5.3046,-5.3063,-5.3027,-5.3081,-5.3094,-5.312,-5.3133,-5.3105,-5.3177,-5.3185,-5.3257,-5.3284,-5.3297,-5.3311,-5.3279,-5.3399,-5.341,-5.3421,-5.3457,-5.3472,-5.3295,-5.3294,-5.3294,-5.3293,0,-5.3082,-5.3123,-5.3164,-5.3192,-5.3214,-5.3264,-5.3254,-5.328,-5.3265,-5.3262,-5.3321,-5.3331,-5.3362,-5.3379,-5.3363,-5.3449,-5.3433,-5.3403,-5.3351,-5.3441,-5.3475,-5.3489,-5.3301,-5.33,-5.3298,-5.3297,0,0,-5.322,-5.324,-5.3255,-5.3268,-5.3286,-5.3317,-5.3366,-5.3398,-5.342,-5.3441,-5.348,-5.3531,-5.3504,-5.352,-5.3507,-5.3543,-5.363,-5.3508,-5.3508,-5.3529,-5.3725,-5.3746,-5.3763,-5.3613,-5.3616,-5.3618,-5.3723,0,-5.3321,-5.3405,-5.3392,-5.3474,-5.3511,-5.3479,-5.3522,-5.3538,-5.3538,-5.357,-5.357,-5.3606,-5.3567,-5.3577,-5.3612,-5.3612,-5.3669,-5.3605,-5.3649,-5.3651,-5.3644,-5.3781,-5.3803,-5.3901,-5.3736,-5.3739,-5.374,0,-5.3448,-5.3475,-5.356,-5.3574,-5.3589,-5.3628,-5.3657,-5.3688,-5.3707,-5.3704,-5.3724,-5.3705,-5.3754,-5.3705,-5.3772,-5.3729,-5.3747,-5.3751,-5.3754,-5.3755,-5.3699,-5.3784,-5.3932,-5.3946,-5.3761,-5.376,-5.3758,0,-5.3538,-5.3596,-5.3655,-5.3667,-5.3685,-5.3713,-5.3722,-5.3737,-5.3758,-5.3784,-5.3797,-5.3829,-5.3845,-5.387,-5.386,-5.3825,-5.393,-5.3879,-5.3929,-5.3929,-5.3949,-5.3948,-5.41,-5.3965,-5.3965,-5.3965,-5.3964,0,-5.365,-5.3704,-5.3696,-5.3731,-5.3791,-5.3777,-5.3836,-5.3841,-5.3856,-5.3892,-5.3867,-5.3901,-5.3887,-5.3921,-5.3914,-5.3971,-5.3979,-5.3978,-5.3975,-5.3979,-5.3979,-5.3989,-5.3981,-5.3968,-5.3968,-5.3967,-5.3966,0,-5.376,-5.3757,-5.3818,-5.3832,-5.3837,-5.388,-5.3891,-5.3925,-5.3925,-5.3972,-5.3982,-5.3981,-5.402,-5.4014,-5.4056,-5.4052,-5.4123,-5.4112,-5.4116,-5.4113,-5.4162,-5.4157,-5.4325,-5.4346,-5.4199,-5.42,-5.4201,0,-5.383,-5.3871,-5.389,-5.3913,-5.3924,-5.3962,-5.3983,-5.3972,-5.3996,-5.4022,-5.4053,-5.409,-5.4118,-5.4182,-5.4185,-5.4219,-5.4208,-5.4264,-5.4212,-5.4215,-5.4207,-5.4204,-5.4207,-5.4274,-5.4275,-5.4277,-5.4278,0,-5.3955,-5.3952,-5.3985,-5.4018,-5.4045,-5.407,-5.4093,-5.4113,-5.4105,-5.4133,-5.4173,-5.4196,-5.4241,-5.4278,-5.431,-5.4318,-5.4297,-5.4295,-5.4308,-5.4311,-5.4311,-5.431,-5.4142,-5.429,-5.4289,-5.4288,-5.4287,-5.4287,-5.4046,-5.4081,-5.41,-5.4138,-5.4154,-5.4177,-5.4209,-5.4215,-5.4248,-5.4284,-5.4277,-5.4322,-5.4342,-5.4382,-5.4395,-5.4431,-5.4409,-5.4428,-5.4433,-5.4437,-5.4442,-5.4308,-5.4437,-5.4436,-5.4436,-5.4436,-5.4435,0,-5.4168,-5.418,-5.4215,-5.4248,-5.4278,-5.4258,-5.4283,-5.4309,-5.435,-5.437,-5.44,-5.4447,-5.4484,-5.4492,-5.4527,-5.4554,-5.4545,-5.4563,-5.456,-5.4562,-5.446,-5.4444,-5.457,-5.457,-5.457,-5.457,-5.457,-5.457,-5.4235,-5.4293,-5.4293,-5.436,-5.4371,-5.4416,-5.4432,-5.4453,-5.4469,-5.4523,-5.4554,-5.456,-5.4575,-5.4612,-5.4645,-5.4646,-5.466,-5.4682,-5.4679,-5.4583,-5.4569,-5.4556,-5.4542,-5.4685,-5.4685,-5.4778,-5.4779,-5.478]},{"header":{"parameterUnit":"m.s-1","parameterCategory":1,"la1":30.2991,"la2":30.254,"lo1":-89.0895,"lo2":-89.0444,"dy":0.0017,"dx":0.0017,"nx":28,"ny":28,"refTime":"2024-12-15T03:00:00:Z","depth":0,"parameterNumber":3,"parameterNumberName":"V-component_of_WINDS"},"data":[0,0,0,0,0,0,0,0,0,0,0,0,0,0,0,0,0,0,0,0,0,0,0,0,0,0,0,0,0,0,0,0,0,0,0,0,0,0,0,0,0,0,0,0,0,0,0,0,0,0,0,0,0,0,0,0,0,0,1.3671,1.3671,0,1.3651,1.3651,1.3651,1.3651,1.3651,1.3652,1.3652,1.363,1.3629,1.3628,0,0,0,0,0,0,0,0,0,0,0,0,0,1.371,1.3709,1.3671,1.3671,1.3671,1.3651,1.3651,1.3651,1.3651,1.3651,1.3652,1.3652,1.363,1.3629,1.3628,0,0,0,0,0,0,0,0,0,0,0,0,0,1.3692,1.3709,1.3671,1.3668,1.3668,1.3651,1.3651,1.3651,1.3651,1.3651,1.3652,1.3652,1.363,1.3629,1.3628,1.3612,0,0,1.3624,1.3623,0,0,0,0,0,0,0,0,1.3693,1.369,1.3669,1.3669,1.3668,1.3654,1.3656,1.3637,1.3651,1.3657,1.3652,1.3652,1.3637,1.3636,1.3631,1.3611,1.361,1.3624,1.3623,1.3622,1.3622,0,0,0,0,0,0,0,1.3694,1.3691,1.3663,1.3669,1.3668,1.3668,1.3666,1.3653,1.3645,1.3657,1.3657,1.3655,1.3637,1.3632,1.363,1.3609,1.3624,1.3623,1.3622,1.3621,1.3578,1.3577,0,0,0,0,0,0,1.3696,1.3692,1.3664,1.3662,1.3682,1.3667,1.3665,1.3658,1.3645,1.3644,1.3654,1.3655,1.3634,1.3632,1.3629,1.3611,1.3622,1.3621,1.3621,1.3578,1.3578,1.3577,0,0,0,0,0,0,1.3697,1.3693,1.3665,1.3677,1.3674,1.3666,1.3659,1.3658,1.3652,1.3643,1.3642,1.365,1.3634,1.3631,1.3617,1.3611,1.3621,1.362,1.3579,1.3578,1.3577,1.3574,0,0,0,0,0,0,1.3698,1.3694,1.3687,1.3677,1.3673,1.3652,1.3658,1.3657,1.365,1.3651,1.3639,1.3638,1.3634,1.3619,1.3616,1.3609,1.3619,1.3579,1.3578,1.3578,1.3575,1.3573,1.3572,0,0,0,0,0,1.3699,1.3686,1.3687,1.3683,1.3665,1.3652,1.3649,1.3646,1.365,1.3644,1.3638,1.3638,1.3612,1.3617,1.3614,1.3607,1.3579,1.3579,1.3578,1.3575,1.3574,1.3572,0,0,0,0,0,0,1.3693,1.3684,1.3685,1.3668,1.3661,1.3652,1.3643,1.3644,1.3634,1.3635,1.3631,1.3628,1.3614,1.3609,1.3615,1.3592,1.3596,1.3595,1.3596,1.3594,1.3593,1.3594,1.3617,0,0,0,0,0,1.369,1.3681,1.3673,1.3659,1.3655,1.365,1.3644,1.3643,1.3635,1.3631,1.3625,1.3617,1.3607,1.36,1.359,1.3574,1.3573,1.3568,1.3567,1.3566,1.3564,1.3557,1.3556,1.3574,1.3574,1.3574,0,0,1.3683,1.3677,1.3671,1.3658,1.3652,1.3642,1.3647,1.3636,1.3629,1.3629,1.3616,1.3611,1.3602,1.3587,1.358,1.3582,1.3559,1.3565,1.3564,1.3563,1.3556,1.3555,1.3553,1.3574,1.3574,1.3574,0,0,1.3666,1.366,1.3649,1.3644,1.3635,1.3633,1.363,1.3622,1.3619,1.3606,1.3606,1.3598,1.358,1.3575,1.3569,1.3554,1.3554,1.3551,1.3544,1.3538,1.3536,1.3535,1.3531,1.3529,1.355,1.355,1.355,0,1.3658,1.3644,1.3643,1.3633,1.3627,1.3629,1.3618,1.3613,1.3601,1.3598,1.3601,1.3581,1.3574,1.356,1.3556,1.3551,1.3549,1.3552,1.3537,1.3536,1.3534,1.353,1.3528,1.3549,1.3549,1.3549,1.3549,0,1.3636,1.3626,1.3618,1.3609,1.3603,1.3592,1.359,1.3584,1.3584,1.3581,1.3569,1.3562,1.3552,1.3548,1.3547,1.3534,1.3536,1.3538,1.3542,1.3532,1.3528,1.3526,1.3549,1.3549,1.3549,1.3549,0,0,1.3612,1.3605,1.3602,1.3599,1.3591,1.3584,1.3574,1.3566,1.3562,1.3555,1.3547,1.3534,1.3537,1.3531,1.353,1.3524,1.3514,1.3527,1.3527,1.3525,1.3501,1.3499,1.3497,1.3515,1.3514,1.3514,1.3502,0,1.3594,1.3578,1.3578,1.3562,1.3555,1.3558,1.355,1.3545,1.3542,1.3536,1.3533,1.3525,1.3528,1.3525,1.352,1.3516,1.3509,1.3517,1.3508,1.3507,1.351,1.3495,1.3493,1.3481,1.35,1.35,1.3499,0,1.3571,1.3565,1.355,1.3546,1.3543,1.3536,1.3529,1.3523,1.3518,1.3517,1.3512,1.3513,1.3504,1.351,1.3498,1.3504,1.35,1.3498,1.3498,1.3496,1.3502,1.3494,1.3477,1.3476,1.3497,1.3497,1.3497,0,1.3556,1.3545,1.3535,1.3532,1.3527,1.3522,1.352,1.3516,1.3512,1.3506,1.3504,1.3497,1.3493,1.3488,1.3487,1.3491,1.3476,1.3481,1.3476,1.3476,1.3471,1.3472,1.3455,1.3469,1.3469,1.3469,1.3469,0,1.3537,1.3527,1.3528,1.3522,1.3512,1.3513,1.3504,1.3502,1.3499,1.3492,1.3494,1.3489,1.3488,1.3482,1.3481,1.3473,1.3471,1.347,1.347,1.347,1.347,1.3467,1.3468,1.3469,1.3469,1.3469,1.3469,0,1.3518,1.3518,1.3508,1.3505,1.3505,1.3498,1.3496,1.349,1.349,1.3482,1.348,1.3479,1.3473,1.3472,1.3464,1.3463,1.3453,1.3454,1.3455,1.3455,1.345,1.3451,1.343,1.3428,1.3444,1.3444,1.3444,0,1.3505,1.3499,1.3496,1.3493,1.3491,1.3485,1.3482,1.3483,1.348,1.3476,1.3471,1.3465,1.3461,1.3451,1.3449,1.3443,1.3444,1.3438,1.3443,1.3444,1.3445,1.3445,1.3445,1.3436,1.3436,1.3436,1.3436,0,1.3483,1.3485,1.348,1.3476,1.3472,1.3469,1.3466,1.3463,1.3464,1.346,1.3455,1.3451,1.3445,1.344,1.3435,1.3433,1.3435,1.3434,1.3433,1.3432,1.3434,1.3434,1.3453,1.3434,1.3435,1.3435,1.3435,1.3435,1.3468,1.3463,1.3461,1.3457,1.3455,1.3453,1.3448,1.3448,1.3444,1.3439,1.3441,1.3435,1.3433,1.3427,1.3425,1.342,1.3422,1.342,1.3419,1.3419,1.3419,1.3435,1.3419,1.3419,1.342,1.342,1.342,0,1.3446,1.3446,1.3442,1.3439,1.3436,1.344,1.3438,1.3435,1.343,1.3428,1.3424,1.3419,1.3415,1.3414,1.341,1.3407,1.3408,1.3406,1.3406,1.3406,1.3417,1.3419,1.3405,1.3405,1.3405,1.3405,1.3405,1.3405,1.3435,1.3428,1.3429,1.3422,1.3422,1.3417,1.3415,1.3414,1.3413,1.3407,1.3404,1.3404,1.3403,1.34,1.3396,1.3396,1.3395,1.3393,1.3393,1.3403,1.3404,1.3406,1.3408,1.3392,1.3392,1.3382,1.3382,1.3382]}]]